Weather History for Lanai City, HI

Change the Weather History Date:

Wednesday, June 26, 2013

  Actual Average Record
Temperature  
Mean Temperature 74 °F -  
Max Temperature 81 °F 81 °F 85 °F (1993)
Min Temperature 68 °F 64 °F 60 °F (1955)
Cooling Degree Days 10    
Growing Degree Days 24 (Base 50)    
Moisture  
Dew Point 66 °F    
Average Humidity 80    
Maximum Humidity 100    
Minimum Humidity 56    
Precipitation  
Precipitation 0.02 in - - ()
Sea Level Pressure  
Sea Level Pressure 30.05 in    
Wind  
Wind Speed 10 mph (NE)    
Max Wind Speed 23 mph    
Max Gust Speed 30 mph    
Visibility 9 miles    
Events Rain    
Averages and records for this station are not official NWS values.
T = Trace of Precipitation, MM = Missing Value Source: NWS Daily Summary

Daily Weather History Graph

Daily Weather History Graph

Search for Another Location

Airport:

Trip Planner

Search our weather history database for the weather conditions in past years. The results will help you decide how hot, cold, wet, or windy it might be!

Date:

Astronomy

Jun. 26, 2013 Rise Set
Actual Time 5:49 AM HST 7:12 PM HST
Civil Twilight 5:24 AM HST 7:37 PM HST
Nautical Twilight 4:54 AM HST 8:06 PM HST
Astronomical Twilight 4:24 AM HST 8:37 PM HST
Moon 10:17 PM HST (6/26) 9:23 AM HST (6/26)
Length of Visible Light 14h 12m
Length of Day
13h 23m
Waning Gibbous, 83% of the Moon is Illuminated
Jun 26
Waning Gibbous
Jun 29
Last Quarter
Jul 7
New
Jul 15
First Quarter
Jul 22
Full

Hourly Weather History & Observations

Time (HST) Temp. Heat Index Dew Point Humidity Pressure Visibility Wind Dir Wind Speed Gust Speed Precip Events Conditions
12:03 AM 69.8 °F - 69.8 °F 100% 30.13 in 10.0 mi ESE 4.6 mph - N/A   Mostly Cloudy
12:28 AM 69.8 °F - 68.0 °F 94% 30.13 in 6.0 mi NE 6.9 mph - 0.00 in Rain Light Rain
12:33 AM 69.8 °F - 68.0 °F 94% 30.13 in 1.8 mi NE 10.4 mph - 0.00 in Rain Heavy Rain
12:42 AM 69.8 °F - 68.0 °F 94% 30.13 in 1.2 mi NE 8.1 mph - 0.02 in Rain Heavy Rain
12:49 AM 69.8 °F - 68.0 °F 94% 30.13 in 2.0 mi ENE 10.4 mph - 0.02 in Rain Light Rain
12:56 AM 68.9 °F - 68.0 °F 97% 30.06 in 6.0 mi NE 10.4 mph - 0.02 in Rain Light Rain
1:46 AM 69.8 °F - 66.2 °F 88% 30.11 in 10.0 mi NNE 8.1 mph - 0.00 in   Scattered Clouds
1:56 AM 68.9 °F - 66.9 °F 93% 30.05 in 10.0 mi NE 9.2 mph - 0.00 in   Scattered Clouds
2:56 AM 68.0 °F - 65.8 °F 93% 30.05 in 10.0 mi NE 5.8 mph - N/A   Scattered Clouds
3:56 AM 68.9 °F - 64.9 °F 87% 30.04 in 10.0 mi NE 8.1 mph - N/A   Mostly Cloudy
4:56 AM 68.0 °F - 63.9 °F 87% 30.04 in 10.0 mi SE 5.8 mph - N/A   Clear
5:56 AM 68.0 °F - 64.9 °F 90% 30.05 in 10.0 mi East 5.8 mph - N/A   Clear
6:56 AM 70.0 °F - 68.0 °F 93% 30.06 in 10.0 mi ENE 4.6 mph - N/A   Clear
7:56 AM 73.9 °F - 63.9 °F 71% 30.06 in 10.0 mi ENE 11.5 mph - N/A   Clear
8:56 AM 75.9 °F - 63.9 °F 66% 30.06 in 10.0 mi ENE 12.7 mph - N/A   Clear
9:56 AM 79.0 °F - 65.8 °F 64% 30.05 in 10.0 mi NE 15.0 mph 21.9 mph N/A   Partly Cloudy
10:56 AM 81.9 °F 84.2 °F 66.9 °F 60% 30.04 in 10.0 mi NE 16.1 mph - N/A   Partly Cloudy
11:56 AM 81.0 °F 83.3 °F 66.9 °F 62% 30.04 in 10.0 mi NNE 11.5 mph 16.1 mph N/A   Mostly Cloudy
12:56 PM 81.0 °F 83.3 °F 66.9 °F 62% 30.01 in 10.0 mi NNE 15.0 mph 23.0 mph N/A   Clear
1:56 PM 81.9 °F 83.5 °F 64.9 °F 56% 30.00 in 10.0 mi NE 21.9 mph - 0.00 in   Clear
2:56 PM 79.9 °F - 64.9 °F 60% 30.00 in 10.0 mi NNE 20.7 mph 27.6 mph N/A   Clear
3:56 PM 79.0 °F - 64.9 °F 62% 29.99 in 10.0 mi NE 21.9 mph - N/A   Clear
4:56 PM 77.9 °F - 65.8 °F 66% 29.99 in 10.0 mi NE 21.9 mph - N/A   Clear
5:56 PM 74.8 °F - 64.9 °F 71% 29.99 in 10.0 mi NE 23.0 mph 29.9 mph N/A   Clear
6:56 PM 72.0 °F - 64.9 °F 78% 30.01 in 10.0 mi NE 19.6 mph 27.6 mph N/A   Clear
7:56 PM 70.9 °F - 64.9 °F 81% 30.01 in 10.0 mi NE 16.1 mph - N/A   Clear
8:56 PM 70.0 °F - 64.9 °F 84% 30.02 in 10.0 mi NNE 13.8 mph - N/A   Clear
9:56 PM 70.0 °F - 64.9 °F 84% 30.02 in 10.0 mi NNE 11.5 mph - N/A   Clear
10:56 PM 68.9 °F - 64.9 °F 87% 30.02 in 10.0 mi NNE 8.1 mph - N/A   Clear
11:56 PM 68.9 °F - 65.8 °F 90% 30.02 in 10.0 mi NNE 10.4 mph - N/A   Clear